Weather Roundup
Issued by NWS

Home | Current Version | Previous Version | Graphics & Text | Print | Product List | Glossary Off
Versions: 1 2 3 4 5 6 7 8 9 10 11 12 13 14 15 16 17 18 19 20 21 22 23 24 25 26 27 28 29 30 31 32 33 34 35 36 37 38 39 40 41 42 43 44 45 46 47 48 49 50

000
NZUS93 KARX 310359
HRRWXR

CURRENT HOURLY OBSERVATIONS ACROSS
MUCH OF THE UPPER MISSISSIPPI VALLEY
NATIONAL WEATHER SERVICE LA CROSSE WI
1100 PM CDT SUN AUG 30 2015


...SOUTHEAST MINNESOTA...


CITY           SKY/WX    TMP DP  RH WIND       PRES   REMARKS
ROCHESTER      CLEAR     61  60  97 S8        30.00S
ROCHESTER/MAYO FAIR      64  65 100 S7        29.99S
WINONA         CLEAR     63  61  94 CALM      29.98S
AUSTIN         NOT AVBL
ALBERT LEA     CLEAR     66  64  94 S6        29.97F
DODGE CENTER   CLEAR     63  61  94 S8        29.98S
PRESTON        CLEAR     62  60  94 S8        30.00F
OWATONNA       CLEAR     64  63  94 S7        29.97S
FARIBAULT      CLEAR     64  63  94 S5        29.96S
$$

...ELSEWHERE IN MINNESOTA...


CITY           SKY/WX    TMP DP  RH WIND       PRES   REMARKS
MINNEAPOLIS    MOCLDY    70  65  84 S8        29.93F
INTNL FALLS    NOT AVBL
DULUTH         CLEAR     68  64  87 SW9       29.89F
RED WING       CLEAR     66  63  88 S3        29.95S
REDWOOD FALLS  PTCLDY    67  65  93 S10       29.90S
MANKATO        CLEAR     64  61  88 S7        29.94F
WORTHINGTON    PTCLDY    64  61  88 S13       29.94S
FAIRMONT       CLEAR     64  61  88 S7        29.95S
$$

...SOUTHWEST WISCONSIN...


CITY           SKY/WX    TMP DP  RH WIND       PRES   REMARKS
LA CROSSE      CLEAR     64  62  93 CALM      29.98S
PRAIRIE DU CHI CLEAR     63  61  94 E3        30.00F
BOSCOBEL       FOG       62  61  96 CALM      30.01S VSB 1/4
LONE ROCK      FOG       61  61 100 E3        30.02S VSB 1/4
PLATTEVILLE    CLEAR     63  63  99 S5        30.03S
FORT MC COY    CLEAR     60  58  94 CALM      30.01S
CAMP DOUGLAS   FOG       59  59 100 CALM      30.00S VSB 1/2
VIROQUA          N/A     64  64 100 S5        30.02S
WIS DELLS      CLEAR     62  60  94 S5        30.02S
$$

...ELSEWHERE IN WISCONSIN...


CITY           SKY/WX    TMP DP  RH WIND       PRES   REMARKS
MILWAUKEE      CLEAR     63  61  93 SW6       30.03S FOG
MADISON        MOCLDY    65  62  90 S3        30.02S
GREEN BAY      CLEAR     63  62  97 S3        29.99S
EAU CLAIRE     NOT AVBL
BLACK RVR FLS  FOG       56  56 100 CALM      29.98S VSB<1/4
MEDFORD        CLEAR     62  62  99 S5        30.00S
WAUSAU         CLEAR     65  62  90 CALM      29.98F
WIS RAPIDS     CLEAR     63  61  93 CALM      30.01S FOG
MARSHFIELD     FOG       63  60  90 SW5       30.00S VSB 1/4
RICE LAKE      CLEAR     63  61  93 S3        29.97S
$$

...NORTHEAST IOWA...


CITY           SKY/WX    TMP DP  RH WIND       PRES   REMARKS
DECORAH        CLOUDY    64  63  94 CALM      30.00S
MASON CITY     CLEAR     60  60 100 S7        30.00S FOG
CHARLES CITY   CLEAR     63  63 100 S5        30.00F
OELWEIN          N/A     61  61 100 SE5       30.02S FOG
$$

...ELSEWHERE IN IOWA...


CITY           SKY/WX    TMP DP  RH WIND       PRES   REMARKS
DES MOINES     PTCLDY    70  66  87 SE7       29.99R
IOWA CITY      FOG       64  63  96 CALM      30.02F VSB 1/2
FORT DODGE     CLEAR     63  59  88 CALM      29.99S
$$

...NORTHERN ILLINOIS...


CITY           SKY/WX    TMP DP  RH WIND       PRES   REMARKS
CHICAGO-OHARE  CLEAR     65  63  93 SE3       30.04S FOG
CHICAGO-MIDWAY CLEAR     69  64  84 E3        30.03F
MOLINE         CLEAR     65  63  93 CALM      30.02S
ROCKFORD       CLEAR     65  62  90 CALM      30.05S
PEORIA         CLEAR     72  66  81 NE3       30.02F
$$

NOTE: "FAIR" INDICATES FEW OR NO CLOUDS BELOW 12,000 FEET WITH NO
SIGNIFICANT WEATHER AND/OR OBSTRUCTIONS TO VISIBILITY. WIND
SPEEDS ARE IN MILES-PER-HOUR.



USA.gov is the U.S. government's official web portal to all federal, state and local government web resources and services.